GW5874 Weather Reports


time (UTC)temp
F
wind
direction
speed
knots
gust
knots
rain 1hr
in
rain 24hr
in
rain mn
in
humidity
%
barometer
mb
20260905182724 100 264 1.7 3.5 0.00 0.00 0.00 38 1014.7
20260905182224 100 195 1.7 2.6 0.00 0.00 0.00 38 1014.8
20260905181719 102 351 1.7 2.6 0.00 0.00 0.00 36 1014.9
20260905181218 103 17 1.7 3.5 0.00 0.00 0.00 36 1014.9
20260905180713 102 219 2.6 3.5 0.00 0.00 0.00 37 1015.2
20260905180209 101 44 2.6 4.3 0.00 0.00 0.00 37 1015.1
20260905175708 100 258 1.7 2.6 0.00 0.00 0.00 39 1015.1
20260905175203 100 34 3.5 3.5 0.00 0.00 0.00 39 1015.0
20260905174658 99 208 0.9 2.6 0.00 0.00 0.00 39 1015.1
20260905174154 98 76 5.2 6.1 0.00 0.00 0.00 40 1015.2
20260905173650 97 48 2.6 3.5 0.00 0.00 0.00 42 1015.1
20260905173145 96 102 5.2 6.1 0.00 0.00 0.00 43 1015.3
20260905172644 100 129 4.3 4.3 0.00 0.00 0.00 40 1015.4
20260905172139 101 185 2.6 3.5 0.00 0.00 0.00 39 1015.5
20260905171635 100 216 0.9 0.9 0.00 0.00 0.00 40 1015.6
20260905171131 100 217 2.6 3.5 0.00 0.00 0.00 39 1015.6
20260905170627 98 58 1.7 2.6 0.00 0.00 0.00 42 1015.6
20260905170123 99 245 0.9 0.9 0.00 0.00 0.00 41 1015.7
20260905165617 98 270 1.7 2.6 0.00 0.00 0.00 41 1015.8
20260905165113 99 278 1.7 2.6 0.00 0.00 0.00 41 1015.6
20260905164608 99 295 1.7 2.6 0.00 0.00 0.00 40 1015.8
20260905164107 99 271 1.7 2.6 0.00 0.00 0.00 40 1015.8
20260905163603 98 262 0.9 0.9 0.00 0.00 0.00 41 1015.7
20260905163059 98 201 1.7 2.6 0.00 0.00 0.00 42 1015.8
20260905162555 99 245 1.7 2.6 0.00 0.00 0.00 42 1016.1
20260905162055 98 289 0.9 0.9 0.00 0.00 0.00 42 1016.1
20260905161555 97 280 1.7 2.6 0.00 0.00 0.00 43 1015.9
20260905161053 97 305 1.7 2.6 0.00 0.00 0.00 45 1016.1
20260905160552 96 234 0.9 0.9 0.00 0.00 0.00 46 1015.8
20260905160051 97 252 0.9 0.9 0.00 0.00 0.00 44 1015.9
20260905155551 95 231 0.0 0.0 0.00 0.00 0.00 45 1015.9
20260905155050 95 301 2.6 3.5 0.00 0.00 0.00 46 1015.8
20260905154545 95 297 1.7 2.6 0.00 0.00 0.00 46 1015.9
20260905154041 95 291 1.7 2.6 0.00 0.00 0.00 47 1015.8
20260905153537 95 279 1.7 2.6 0.00 0.00 0.00 46 1015.9
20260905153036 95 228 1.7 2.6 0.00 0.00 0.00 47 1015.7
20260905152531 96 214 2.6 3.5 0.00 0.00 0.00 48 1015.8
20260905152026 93 249 2.6 3.5 0.00 0.00 0.00 51 1015.9
20260905151521 93 218 1.7 2.6 0.00 0.00 0.00 50 1015.8
20260905151017 93 174 2.6 2.6 0.00 0.00 0.00 51 1015.8
20260905150512 91 251 0.9 0.9 0.00 0.00 0.00 53 1015.8
20260905150010 91 207 2.6 3.5 0.00 0.00 0.00 54 1015.8
20260905145503 90 202 1.7 3.5 0.00 0.00 0.00 56 1015.8
20260905145002 91 228 0.0 0.0 0.00 0.00 0.00 55 1015.7
20260905144458 90 200 0.0 0.0 0.00 0.00 0.00 55 1015.7
20260905143956 90 233 0.0 0.0 0.00 0.00 0.00 56 1015.8
20260905143455 89 214 0.0 0.0 0.00 0.00 0.00 56 1015.8
20260905142951 89 281 0.0 0.0 0.00 0.00 0.00 57 1015.6
20260905142449 89 210 0.0 0.0 0.00 0.00 0.00 56 1015.7
20260905141945 88 248 0.0 0.0 0.00 0.00 0.00 59 1015.6
20260905141439 87 331 0.0 0.0 0.00 0.00 0.00 61 1015.6
20260905140936 87 178 0.0 0.0 0.00 0.00 0.00 62 1015.6
20260905140431 87 187 0.0 0.0 0.00 0.00 0.00 62 1015.9
20260905135930 86 195 0.0 0.0 0.00 0.00 0.00 64 1015.6
20260905135425 85 192 0.0 0.0 0.00 0.00 0.00 65 1015.7
20260905134921 83 245 0.0 0.0 0.00 0.00 0.00 68 1015.6
20260905134420 81 240 0.0 0.0 0.00 0.00 0.00 71 1015.7
20260905133915 81 304 0.0 0.0 0.00 0.00 0.00 72 1015.6
20260905133415 81 272 0.0 0.0 0.00 0.00 0.00 72 1015.6
20260905132914 82 243 0.0 0.0 0.00 0.00 0.00 71 1015.6
20260905132409 81 217 0.0 0.0 0.00 0.00 0.00 73 1015.5
20260905131904 79 216 0.0 0.0 0.00 0.00 0.00 76 1015.5
20260905131400 78 278 0.0 0.0 0.00 0.00 0.00 79 1015.5
20260905130855 76 254 0.0 0.0 0.00 0.00 0.00 84 1015.3
20260905130354 74 272 0.0 0.0 0.00 0.00 0.00 89 1015.5
20260905125849 72 280 0.0 0.0 0.00 0.00 0.00 92 1015.5
20260905125344 71 275 0.0 0.0 0.00 0.00 0.00 93 1015.4
20260905124840 71 267 0.0 0.0 0.00 0.00 0.00 93 1015.5
20260905124336 70 267 0.0 0.0 0.00 0.00 0.00 94 1015.1
20260905123836 70 281 0.0 0.0 0.00 0.00 0.00 94 1015.5
20260905123333 70 276 0.0 0.0 0.00 0.00 0.00 94 1015.3
20260905122833 70 264 0.0 0.0 0.00 0.00 0.00 94 1015.2
20260905122332 70 253 0.0 0.0 0.00 0.00 0.00 94 1015.3
20260905121827 69 265 0.0 0.0 0.00 0.00 0.00 95 1015.2
20260905121324 69 277 0.0 0.0 0.00 0.00 0.00 95 1015.2
20260905120822 69 283 0.0 0.0 0.00 0.00 0.00 95 1015.3
20260905120317 69 274 0.0 0.0 0.00 0.00 0.00 95 1015.3
20260905115812 69 266 0.0 0.0 0.00 0.00 0.00 95 1014.9
20260905115311 69 264 0.0 0.0 0.00 0.00 0.00 95 1015.1
20260905114811 69 269 0.0 0.0 0.00 0.00 0.00 95 1014.8
20260905114310 69 260 0.0 0.0 0.00 0.00 0.00 95 1014.9
20260905113810 69 253 0.0 0.0 0.00 0.00 0.00 95 1014.8
20260905113306 69 271 0.0 0.0 0.00 0.00 0.00 95 1014.7
20260905112801 69 270 0.0 0.0 0.00 0.00 0.00 95 1014.9
20260905112256 69 274 0.0 0.0 0.00 0.00 0.00 95 1014.8
20260905111751 69 273 0.0 0.0 0.00 0.00 0.00 95 1014.8
20260905111251 69 265 0.0 0.0 0.00 0.00 0.00 94 1014.8
20260905110750 69 237 0.0 0.0 0.00 0.00 0.00 94 1014.6
20260905110244 69 272 0.0 0.0 0.00 0.00 0.00 94 1014.8
20260905105740 69 270 0.0 0.0 0.00 0.00 0.00 94 1014.8
20260905105239 69 276 0.0 0.0 0.00 0.00 0.00 94 1014.6
20260905104734 69 266 0.0 0.0 0.00 0.00 0.00 94 1014.5
20260905104230 69 257 0.0 0.0 0.00 0.00 0.00 94 1014.5
20260905103724 69 275 0.0 0.0 0.00 0.00 0.00 94 1014.6
20260905103220 70 275 0.0 0.0 0.00 0.00 0.00 94 1014.5
20260905102716 70 276 0.0 0.0 0.00 0.00 0.00 94 1014.6
20260905102212 70 256 0.0 0.0 0.00 0.00 0.00 93 1014.5
20260905101711 70 270 0.0 0.0 0.00 0.00 0.00 93 1014.5
20260905101209 70 265 0.0 0.0 0.00 0.00 0.00 93 1014.5
20260905100706 70 265 0.0 0.0 0.00 0.00 0.00 93 1014.5
20260905100201 70 265 0.0 0.0 0.00 0.00 0.00 93 1014.4
20260905095700 70 270 0.0 0.0 0.00 0.00 0.00 92 1014.6
20260905095155 70 277 0.0 0.0 0.00 0.00 0.00 92 1014.3
20260905094650 70 280 0.0 0.0 0.00 0.00 0.00 92 1014.4
20260905094149 70 287 0.0 0.0 0.00 0.00 0.00 92 1014.3
20260905093644 70 255 0.0 0.0 0.00 0.00 0.00 92 1014.4
20260905093140 70 274 0.0 0.0 0.00 0.00 0.00 92 1014.5
20260905092640 71 274 0.0 0.0 0.00 0.00 0.00 92 1014.3
20260905092136 71 278 0.0 0.0 0.00 0.00 0.00 92 1014.3
20260905091636 71 265 0.0 0.0 0.00 0.00 0.00 92 1014.4
20260905091135 71 264 0.0 0.0 0.00 0.00 0.00 91 1014.4
20260905090630 71 260 0.0 0.0 0.00 0.00 0.00 91 1014.4
20260905090126 71 258 0.0 0.0 0.00 0.00 0.00 91 1014.2
20260905085624 71 278 0.0 0.0 0.00 0.00 0.00 91 1014.4
20260905085120 71 265 0.0 0.0 0.00 0.00 0.00 91 1014.2
20260905084619 71 260 0.0 0.0 0.00 0.00 0.00 91 1014.2
20260905084115 71 293 0.0 0.0 0.00 0.00 0.00 91 1013.9
20260905083615 71 264 0.0 0.0 0.00 0.00 0.00 91 1014.2
20260905083111 71 250 0.0 0.0 0.00 0.00 0.00 91 1014.2
20260905082606 71 250 0.0 0.0 0.00 0.00 0.00 90 1014.5
20260905082102 71 268 0.0 0.0 0.00 0.00 0.00 90 1014.1
20260905081601 71 274 0.0 0.0 0.00 0.00 0.00 89 1014.1
20260905081057 71 274 0.0 0.0 0.00 0.00 0.00 89 1014.2
20260905080556 72 271 0.0 0.0 0.00 0.00 0.00 89 1014.1
20260905080052 72 259 0.0 0.0 0.00 0.00 0.00 89 1014.1
20260905075550 72 273 0.0 0.0 0.00 0.00 0.00 89 1014.2
20260905075050 72 276 0.0 0.0 0.00 0.00 0.00 89 1014.1
20260905074550 72 260 0.0 0.0 0.00 0.00 0.00 89 1014.3
20260905074046 72 261 0.0 0.0 0.00 0.00 0.00 88 1014.1
20260905073541 73 261 0.0 0.0 0.00 0.00 0.00 87 1014.2
20260905073037 73 288 0.0 0.0 0.00 0.00 0.00 87 1014.1
20260905072536 73 284 0.0 0.0 0.00 0.00 0.00 86 1014.4
20260905072032 73 279 0.0 0.0 0.00 0.00 0.00 86 1014.1
20260905071528 73 278 0.0 0.0 0.00 0.00 0.00 86 1014.2
20260905071028 73 289 0.0 0.0 0.00 0.00 0.00 86 1014.2
20260905070523 73 290 0.0 0.0 0.00 0.00 0.00 86 1014.3
20260905070019 73 284 0.0 0.0 0.00 0.00 0.00 87 1014.4
20260905065517 73 281 0.0 0.0 0.00 0.00 0.00 87 1014.5
20260905065012 73 245 0.0 0.0 0.00 0.00 0.00 87 1014.5
20260905064507 73 256 0.0 0.0 0.00 0.00 0.00 86 1014.5
20260905064002 73 267 0.0 0.0 0.00 0.00 0.00 86 1014.6
20260905063456 73 277 0.0 0.0 0.00 0.00 0.00 86 1014.6
20260905062953 73 261 0.0 0.0 0.00 0.00 0.00 86 1014.4
20260905062452 73 234 0.0 0.0 0.00 0.00 0.00 86 1014.5
20260905061947 73 277 0.0 0.0 0.00 0.00 0.00 85 1014.5
20260905061442 73 273 0.0 0.0 0.00 0.00 0.00 85 1014.3
20260905060941 73 269 0.0 0.0 0.00 0.00 0.00 85 1014.3
20260905060438 73 266 0.0 0.0 0.00 0.00 0.00 85 1014.3
20260905055937 74 261 0.0 0.0 0.00 0.00 0.00 84 1014.6
20260905055432 74 277 0.0 0.0 0.00 0.00 0.00 84 1014.4
20260905054931 74 267 0.0 0.0 0.00 0.00 0.00 84 1014.4
20260905054427 74 262 0.0 0.0 0.00 0.00 0.00 83 1014.4
20260905053927 74 242 0.0 0.0 0.00 0.00 0.00 83 1014.6
20260905053422 75 280 0.0 0.0 0.00 0.00 0.00 83 1014.6
20260905052917 75 268 0.0 0.0 0.00 0.00 0.00 82 1014.6
20260905052417 75 285 0.0 0.0 0.00 0.00 0.00 82 1014.4
20260905051916 75 278 0.0 0.0 0.00 0.00 0.00 82 1014.6
20260905051412 75 287 0.0 0.0 0.00 0.00 0.00 82 1014.4
20260905050909 75 286 0.0 0.0 0.00 0.00 0.00 82 1014.6
20260905050405 75 291 0.0 0.0 0.00 0.00 0.00 81 1014.5
20260905045900 75 278 0.0 0.0 0.00 0.00 0.00 81 1014.6
20260905045355 75 287 0.0 0.0 0.00 0.00 0.00 81 1014.6
20260905044850 75 281 0.0 0.0 0.00 0.00 0.00 80 1014.4
20260905044346 76 257 0.0 0.0 0.00 0.00 0.00 80 1014.5
20260905043844 76 172 0.0 0.0 0.00 0.00 0.00 80 1014.5
20260905043339 75 298 0.0 0.0 0.00 0.00 0.00 80 1014.6
20260905042834 75 244 0.0 0.0 0.00 0.00 0.00 80 1014.6
20260905042334 76 243 0.0 0.0 0.00 0.00 0.00 80 1014.5
20260905041829 76 281 0.0 0.0 0.00 0.00 0.00 80 1014.6
20260905041326 76 276 0.0 0.0 0.00 0.00 0.00 80 1014.5
20260905040826 76 249 0.0 0.0 0.00 0.00 0.00 79 1014.6
20260905040324 76 290 0.0 0.0 0.00 0.00 0.00 79 1014.8
20260905035824 76 291 0.0 0.0 0.00 0.00 0.00 79 1014.4
20260905035320 76 267 0.0 0.0 0.00 0.00 0.00 78 1014.4
20260905034816 77 243 0.0 0.0 0.00 0.00 0.00 78 1014.4
20260905034312 77 274 0.0 0.0 0.00 0.00 0.00 77 1014.4
20260905033810 77 273 0.0 0.0 0.00 0.00 0.00 77 1014.5
20260905033306 77 288 0.0 0.0 0.00 0.00 0.00 76 1014.2
20260905032805 77 268 0.0 0.0 0.00 0.00 0.00 76 1014.2
20260905032301 77 270 0.0 0.0 0.00 0.00 0.00 76 1014.2
20260905031755 77 262 0.0 0.0 0.00 0.00 0.00 76 1014.3
20260905031252 78 263 0.0 0.0 0.00 0.00 0.00 75 1014.1
20260905030747 78 259 0.0 0.0 0.00 0.00 0.00 75 1014.1
20260905030242 78 210 0.0 0.0 0.00 0.00 0.00 74 1014.1
20260905025742 78 267 0.0 0.0 0.00 0.00 0.00 74 1014.0
20260905025237 78 269 0.0 0.0 0.00 0.00 0.00 74 1013.9
20260905024733 78 275 0.0 0.0 0.00 0.00 0.00 73 1013.9
20260905024229 78 275 0.0 0.0 0.00 0.00 0.00 73 1013.8
20260905023729 79 274 0.0 0.0 0.00 0.00 0.00 73 1013.9
20260905023224 79 274 0.0 0.0 0.00 0.00 0.00 72 1013.6
20260905022723 78 333 0.0 0.0 0.00 0.00 0.00 73 1013.7
20260905022219 79 318 0.0 0.0 0.00 0.00 0.00 72 1013.7
20260905021719 79 275 0.0 0.0 0.00 0.00 0.00 72 1013.6
20260905021214 79 270 0.0 0.0 0.00 0.00 0.00 71 1013.3
20260905020708 80 270 0.0 0.0 0.00 0.00 0.00 70 1013.4
20260905020204 80 279 0.0 0.0 0.00 0.00 0.00 70 1013.3
20260905015703 80 262 0.0 0.0 0.00 0.00 0.00 68 1013.1
20260905015202 80 284 0.0 0.0 0.00 0.00 0.00 68 1012.8
20260905014701 81 286 0.0 0.0 0.00 0.00 0.00 68 1012.8
20260905014156 81 268 0.0 0.0 0.00 0.00 0.00 67 1013.1
20260905013653 81 267 0.0 0.0 0.00 0.00 0.00 67 1013.0
20260905013149 82 232 0.0 0.0 0.00 0.00 0.00 66 1012.6
20260905012644 82 281 0.0 0.0 0.00 0.00 0.00 65 1012.7
20260905012140 83 218 0.0 0.0 0.00 0.00 0.00 65 1012.7
20260905011636 83 282 0.0 0.0 0.00 0.00 0.00 64 1012.7
20260905011131 83 273 0.0 0.0 0.00 0.00 0.00 63 1012.7
20260905010626 84 296 0.0 0.0 0.00 0.00 0.00 60 1012.6
20260905010122 84 272 0.0 0.0 0.00 0.00 0.00 61 1012.7
20260905005618 85 243 0.0 0.0 0.00 0.00 0.00 59 1012.4
20260905005114 86 290 0.0 0.0 0.00 0.00 0.00 58 1012.4
20260905004613 87 276 0.0 0.0 0.00 0.00 0.00 57 1012.7
20260905004108 88 240 0.0 0.0 0.00 0.00 0.00 55 1012.3
20260905003604 89 291 0.0 0.0 0.00 0.00 0.00 54 1012.5
20260905003100 90 287 0.0 0.0 0.00 0.00 0.00 48 1012.3
20260905002555 91 304 0.9 0.9 0.00 0.00 0.00 47 1012.2
20260905002050 93 231 0.9 0.9 0.00 0.00 0.00 46 1012.5
20260905001545 94 218 0.9 0.9 0.00 0.00 0.00 43 1012.4
20260905001044 95 251 0.0 0.0 0.00 0.00 0.00 40 1012.3
20260905000539 95 235 0.0 0.0 0.00 0.00 0.00 40 1012.4
20260905000036 95 162 1.7 2.6 0.00 0.00 0.00 39 1012.4
20260904235530 96 65 1.7 2.6 0.00 0.00 0.00 41 1012.4
20260904235030 97 212 1.7 2.6 0.00 0.00 0.00 38 1012.4
20260904234530 97 182 0.9 0.9 0.00 0.00 0.00 39 1012.3
20260904234026 97 191 2.6 3.5 0.00 0.00 0.00 38 1012.3
20260904233521 98 99 1.7 2.6 0.00 0.00 0.00 39 1012.2
20260904233017 98 229 1.7 2.6 0.00 0.00 0.00 37 1012.1
20260904232514 98 184 2.6 3.5 0.00 0.00 0.00 37 1012.4
20260904232010 98 120 0.9 2.6 0.00 0.00 0.00 36 1012.4
20260904231506 98 277 0.9 2.6 0.00 0.00 0.00 36 1012.3
20260904231000 98 156 2.6 3.5 0.00 0.00 0.00 36 1012.3
20260904230500 98 150 1.7 2.6 0.00 0.00 0.00 37 1012.4
20260904225955 99 84 1.7 2.6 0.00 0.00 0.00 37 1012.3
20260904225453 98 55 1.7 2.6 0.00 0.00 0.00 37 1012.2
20260904224952 99 64 2.6 3.5 0.00 0.00 0.00 36 1012.4
20260904224448 99 172 2.6 3.5 0.00 0.00 0.00 36 1012.5
20260904223948 99 201 2.6 3.5 0.00 0.00 0.00 35 1012.2
20260904223447 99 96 5.2 7.0 0.00 0.00 0.00 35 1012.4
20260904222943 100 200 1.7 3.5 0.00 0.00 0.00 35 1012.4
20260904222438 100 271 0.9 0.9 0.00 0.00 0.00 34 1012.5
20260904221938 99 196 3.5 4.3 0.00 0.00 0.00 35 1012.6
20260904221432 100 191 7.0 9.6 0.00 0.00 0.00 35 1012.5
20260904220928 100 240 2.6 3.5 0.00 0.00 0.00 34 1012.6
20260904220428 100 270 0.9 0.9 0.00 0.00 0.00 36 1012.6
20260904215923 99 260 1.7 2.6 0.00 0.00 0.00 36 1012.7
20260904215418 99 188 3.5 6.1 0.00 0.00 0.00 35 1012.6
20260904214914 100 215 1.7 2.6 0.00 0.00 0.00 35 1012.8
20260904214409 99 160 1.7 3.5 0.00 0.00 0.00 35 1012.6
20260904213909 99 96 3.5 4.3 0.00 0.00 0.00 34 1013.0
20260904213403 101 85 4.3 7.0 0.00 0.00 0.00 34 1012.8
20260904212859 100 253 2.6 3.5 0.00 0.00 0.00 34 1013.0
20260904212358 99 68 2.6 4.3 0.00 0.00 0.00 36 1013.1
20260904211854 98 229 0.9 0.9 0.00 0.00 0.00 37 1013.1
20260904211349 99 199 4.3 6.1 0.00 0.00 0.00 35 1013.0
20260904210844 99 98 3.5 3.5 0.00 0.00 0.00 36 1013.1
20260904210343 98 255 1.7 2.6 0.00 0.00 0.00 37 1013.1
20260904205839 100 223 1.7 3.5 0.00 0.00 0.00 37 1013.3
20260904205335 100 229 5.2 7.0 0.00 0.00 0.00 36 1013.2
20260904204832 100 208 7.0 8.7 0.00 0.00 0.00 37 1013.4
20260904204327 99 130 3.5 4.3 0.00 0.00 0.00 38 1013.3
20260904203824 99 218 1.7 3.5 0.00 0.00 0.00 38 1013.3
20260904203319 100 251 7.0 8.7 0.00 0.00 0.00 38 1013.3
20260904202815 100 186 3.5 4.3 0.00 0.00 0.00 38 1013.4
20260904202311 100 238 3.5 4.3 0.00 0.00 0.00 39 1013.5
20260904201807 100 191 7.0 9.6 0.00 0.00 0.00 38 1013.6
20260904201301 99 193 5.2 6.1 0.00 0.00 0.00 39 1013.6
20260904200756 101 260 3.5 3.5 0.00 0.00 0.00 37 1013.9
20260904200255 99 215 1.7 2.6 0.00 0.00 0.00 38 1013.7
20260904195755 98 240 2.6 3.5 0.00 0.00 0.00 40 1014.0
20260904195254 98 219 6.1 8.7 0.00 0.00 0.00 40 1014.0
20260904194748 99 246 1.7 2.6 0.00 0.00 0.00 39 1013.8
20260904194247 99 197 5.2 7.0 0.00 0.00 0.00 39 1014.0
20260904193743 98 147 3.5 3.5 0.00 0.00 0.00 40 1014.3
20260904193239 98 352 3.5 4.3 0.00 0.00 0.00 41 1013.9
20260904192734 97 109 3.5 4.3 0.00 0.00 0.00 43 1014.1
20260904192229 97 223 4.3 4.3 0.00 0.00 0.00 42 1014.2
20260904191726 97 185 2.6 3.5 0.00 0.00 0.00 42 1014.3
20260904191222 97 90 1.7 3.5 0.00 0.00 0.00 42 1014.2
20260904190718 98 210 5.2 7.0 0.00 0.00 0.00 41 1014.4
20260904190214 99 109 2.6 3.5 0.00 0.00 0.00 40 1014.5
20260904185710 97 197 1.7 3.5 0.00 0.00 0.00 42 1014.4
20260904185205 97 217 3.5 4.3 0.00 0.00 0.00 42 1014.8
20260904184703 97 196 2.6 3.5 0.00 0.00 0.00 42 1014.7
20260904184159 98 229 0.0 0.9 0.00 0.00 0.00 41 1014.8
20260904183655 97 211 5.2 6.1 0.00 0.00 0.00 43 1014.9
20260904183154 96 200 5.2 7.0 0.00 0.00 0.00 43 1015.1